Regional Weather Roundup
Issued by NWS

Home | Current Version | Previous Version | Text Only | Print | Product List | Glossary On
Versions: 1 2 3 4 5 6 7 8 9 10 11 12 13 14 15 16 17 18 19 20 21 22 23 24 25 26 27 28 29 30 31 32 33 34 35 36 37 38 39 40 41 42 43 44 45 46 47 48 49 50
000
ASUS43 KMPX 060401
RWRMN
WEATHER ROUNDUP FOR MINNESOTA
NATIONAL WEATHER SERVICE TWIN CITIES/CHANHASSEN MN
1100 PM CDT SUN JUL 05 2015


NOTE: "FAIR" INDICATES FEW OR NO CLOUDS BELOW 12,000 FEET WITH NO
SIGNIFICANT WEATHER AND/OR OBSTRUCTIONS TO VISIBILITY. N/A MEANS
CURRENT SKY AND/OR WEATHER CONDITIONS ARE NOT AVAILABLE.

MNZ060>063-068>070-060500-
   Twin Cities Metro

CITY           SKY/WX    TMP DP  RH WIND       PRES   REMARKS
TWIN CITIES    CLOUDY    80  66  62 S13       29.81R
ST PAUL        MOCLDY    77  68  73 S10       29.80S
CRYSTAL        CLOUDY    81  67  62 S16G24    29.77F
BLAINE         CLOUDY    81  70  69 S15G21    29.78F
LAKEVILLE      MOCLDY    75  66  73 S8        29.82S
EDEN PRAIRIE   CLOUDY    79  68  69 S14       29.79S
SOUTH ST PAUL  CLOUDY    78  66  66 S7        29.80F
LAKE ELMO      FAIR      75  68  78 S10       29.82F
$$
MNZ001>005-007-008-013>017-022>024-027-028-060500-
   Northwest Minnesota

CITY           SKY/WX    TMP DP  RH WIND       PRES   REMARKS
BEMIDJI        CLEAR     65  64  93 NW6       29.85R
HALLOCK          N/A     64  61  88 N8        29.86S FOG
ROSEAU         MOCLDY    63  57  82 NW5       29.85S HAZE
WARROAD        PTCLDY    63  59  88 NW3       29.84S FOG
THIEF RVR FALL CLOUDY    64  61  88 NW9       29.88R
CROOKSTON      PTCLDY    64  63  94 N8        29.89R FOG
FOSSTON        MOCLDY    64  63  94 CALM      29.89R
DETROIT LAKES  PTCLDY    68  64  88 N9        29.88R
MOORHEAD       PTCLDY    70  64  83 N9        29.88S
PARK RAPIDS    MOCLDY    69  65  86 NW9       29.85R
MAHNOMEN       FAIR      67  64  88 N7        29.87R
$$
MNZ006-009>011-018-025>026-060500-
   North Central Minnesota

CITY           SKY/WX    TMP DP  RH WIND       PRES   REMARKS
BAUDETTE       CLOUDY    65  60  84 NW8       29.83R HAZE
FLAG ISLAND    MOCLDY    66  61  82 NW14      29.82S HAZE
INTL FALLS     CLOUDY    63  59  87 NW3       29.82R
WASKISH        PTCLDY    66  63  88 N5        29.83S
BIG FORK       PTCLDY    66  63  88 N3        29.81F
LONGVILLE      CLOUDY    68  66  94 CALM      29.84R
GRAND RAPIDS   MOCLDY    66  64  94 CALM      29.83R
CRANE LAKE     MOCLDY    64  63  94 N2        29.80F
COOK           MOCLDY    64  64 100 CALM      29.82R FOG
WALKER         FAIR      65  65  98 W3        29.82S
$$
MNZ012-019>021-037-060500-
   Northeast Minnesota

CITY           SKY/WX    TMP DP  RH WIND       PRES   REMARKS
DULUTH         TSTM      67  64  90 W8        29.83S FOG
ELY            CLOUDY    66  64  94 CALM      29.80S
HIBBING        CLOUDY    67  65  93 N6        29.81R
DULUTH HARBOR  TSTM      68  66  94 W15G32    29.83R
TWO HARBORS    CLOUDY    70  64  83 SE2       29.78R
SILVER BAY     CLOUDY    68  64  88 S6        29.79R
GRAND MARAIS     N/A     61  60  97 CALM      29.78R
G MARAIS ARPRT TSTM      63  61  94 SW7       29.84R
$$
MNZ029>031-032-039>041-046>048-054>057-064-060500-
   West Central Minnesota

CITY           SKY/WX    TMP DP  RH WIND       PRES   REMARKS
FERGUS FALLS   MOCLDY    72  64  78 N6        29.84R
WHEATON        RAIN      72  64  78 NW8       29.89R
MORRIS         MOCLDY    70  66  88 NW9       29.83R
ALEXANDRIA     LGT RAIN  71  68  90 W17       29.83F
ELBOW LAKE     CLOUDY    73  68  83 N6        29.85R
WADENA         PTCLDY    70  66  88 N5        29.82R
GLENWOOD       CLOUDY    72  64  78 W9        29.81R
APPLETON       CLOUDY    72  68  88 E9        29.82R THUNDER
BENSON         TSTM      70  64  83 SW14G30   29.83R
ORTONVILLE     CLOUDY    72  68  88 NW14G20   29.84R
MADISON        TSTM      70  66  88 N15       29.83R
WILLMAR          N/A     81  72  74 SW3       29.78F
$$
MNZ033>034-036-042>043-049>051-058-059-060500-
   Central Minnesota

CITY           SKY/WX    TMP DP  RH WIND       PRES   REMARKS
ST CLOUD       CLOUDY    80  69  69 S13       29.74F
SAUK CENTRE    MOCLDY    72  68  89 SW10      29.81R THUNDER
PAYNESVILLE    CLOUDY    77  71  80 SE9G16    29.77F
AITKIN         TSTM      68  63  83 N5        29.82R
PINE RIVER       N/A     70  68  94 N8        29.85S
BRAINERD       RAIN      69  67  93 N12       29.82F FOG
STAPLES        MOCLDY    70  66  88 N5        29.82S
LONG PRAIRIE   MOCLDY    68  64  88 W7        29.78S
LITTLE FALLS   LGT RAIN  72  66  83 NW5       29.78R
LITCHFIELD     CLOUDY    81  72  74 S6        29.78F
BUFFALO        CLOUDY    80  67  65 S9        29.79F
MAPLE LAKE     CLOUDY    79  71  77 S6        29.79F
$$
MNZ037-044-045-052-053-060500-
   East Central Minnesota

CITY           SKY/WX    TMP DP  RH WIND       PRES   REMARKS
PRINCETON      CLOUDY    81  70  69 S8        29.77F
MORA           CLOUDY    77  68  73 S9        29.79S
CAMBRIDGE      CLOUDY    81  66  61 S8        29.76F
RUSH CITY      MOCLDY    77  67  72 S9        29.79S THUNDER
MOOSE LAKE     TSTM      73  70  88 N16G30    29.79R
HINCKLEY       CLOUDY    77  70  78 SW3       29.79R
CLOQUET        TSTM      66  64  94 W12G18    29.82R
MCGREGOR       CLOUDY    68  64  88 SW3       29.81R THUNDER
$$
MNZ071>073-080-081-089-090-097-098-060500-
   Southwest Minnesota

CITY           SKY/WX    TMP DP  RH WIND       PRES   REMARKS
GRANITE FALLS  CLOUDY    80  71  76 SE6       29.82R THUNDER
CANBY          TSTM      73  69  87 NW13G21   29.84R
MARSHALL       CLOUDY    81  70  69 S6        29.79R
REDWOOD FALLS  CLOUDY    81  70  69 S7        29.81R
OLIVIA         CLOUDY    77  68  73 S7        29.81R
PIPESTONE      CLOUDY    79  72  78 S7        29.81F
WINDOM         CLOUDY    79  68  69 S10G16    29.83R
WORTHINGTON    CLOUDY    77  66  69 S12       29.83R
JACKSON        MOCLDY    77  70  78 S9        29.85R
TRACY          CLOUDY    81  71  72 S9        29.81R
SLAYTON        CLOUDY    78  71  78 S8        29.83S
$$
MNZ065>067-074>077-082>085-091>093-060500-
   South Central Minnesota

CITY           SKY/WX    TMP DP  RH WIND       PRES   REMARKS
MANKATO        CLOUDY    75  66  73 S12       29.82S
NEW ULM        CLOUDY    79  70  73 S12       29.81R
ST JAMES       CLOUDY    79  72  78 SE9       29.82S
FAIRMONT       CLOUDY    75  66  73 S10       29.84R
GLENCOE        CLOUDY    80  70  72 S9        29.79F
FARIBAULT      MOCLDY    75  66  73 S9G17     29.85R
OWATONNA       MOCLDY    75  66  73 S13       29.86R
WASECA         MOCLDY    73  64  73 S13       29.87R
ALBERT LEA     PTCLDY    75  66  73 S10       29.87R
$$
MNZ078>079-086>088-094>096-060500-
   Southeast Minnesota

CITY           SKY/WX    TMP DP  RH WIND       PRES   REMARKS
ROCHESTER      CLEAR     73  66  78 S15       29.89R
RED WING       PTCLDY    77  66  69 S7        29.83R
STANTON        MOCLDY    77  66  69 S6        29.83R
DODGE CENTER   PTCLDY    73  66  78 S12       29.88R
WINONA         CLEAR     73  63  68 S3        29.87R
AUSTIN         CLEAR     73  66  78 S9        29.88R
PRESTON        CLEAR     71  65  83 S9G16     29.91R
$$
ABBREVIATIONS USED IN REMARKS
   TC - TEMPERATURES IN CELSIUS
  WCI - WIND CHILL INDEX
   HX - HEAT INDEX
  VSB - VISIBILITY
$$



USA.gov is the U.S. government's official web portal to all federal, state and local government web resources and services.